User: anonymous   Login
Location: Unspecified
(0.0000°N, 0.0000°E)
Time: 14:09:21
(UTC+00:00)
Language:

FAST - Orbit

View from above orbital plane
View from above orbital plane
View from above satellite
View from above satellite

Ground track
Ground track

The orbit data is extracted from the following two-line orbital elements,

1 24285U 96049A   18114.69049887 +.00001331 +00000-0 +10694-3 0  9996
2 24285 082.9641 195.6936 1873796 001.3797 359.1496 11.53281197886816
Epoch (UTC): 24 April 2018 16:34:19
Eccentricity: 0.1873796
inclination: 82.9641°
perigee height: 346 km
apogee height: 3447 km
right ascension of ascending node: 195.6936°
argument of perigee: 1.3797°
revolutions per day: 11.53281197
mean anomaly at epoch: 359.1496°
orbit number at epoch: 88681

The dashed part of the orbit path shows where the satellite is in the earth's shadow,  

DLR